Home > Weather > Sonthofen > Past weeks

Flag for Germany Past Weather in Sonthofen, Bavaria, Germany — Yesterday and Last 2 Weeks

Now
71 °F

Mild.


Feels Like: 72 °F
Forecast: 60 / 71 °F
Wind: 2 mph from North

Location: Bregenz

Current Time: Jul 27, 2016 at 12:01:13 AM

Latest Report: Jul 26, 2016 at 11:00 PM


Visibility: N/A

Pressure: 30.07 "Hg (27.57 "Hg at 748m altitude)

Humidity: 77%

Dew Point: 63 °F

Location of SonthofenLocation

Past Weather in Sonthofen — Graph

°F

Sonthofen Temperature Yesterday

Maximum temperature yesterday: 81 °F (at 5:00 PM)
Minimum temperature yesterday: 66 °F (at 6:00 AM)
Average temperature yesterday: 72 °F

High & Low Weather Summary for the Past Weeks

 TemperatureHumidityPressure
High88 °F (Jul 20, 7:00 PM)98% (Jul 13, 2:00 AM)30.36 "Hg (Jul 13, 2:00 AM)
Low49 °F (Jul 16, 5:00 AM)31% (Jul 20, 5:00 PM)29.89 "Hg (Jul 20, 7:00 PM)
Average67 °F74%30.08 "Hg
* Reported Jul 11 11:00 PM — Jul 26 11:00 PM, Sonthofen, Weather by CustomWeather, © 2016

Note: Actual official high and low records may vary slightly from our data, if they occured in-between our weather recording intervals... More about our weather records

Advertising

Sonthofen Weather History for the Previous 24 Hours

Scroll right to see more
 ConditionsComfort  
Time TempWeatherWind HumidityBarometerVisibility
11:00 PM
Tue, Jul 26
71 °FMild.2 mph77%30.07 "HgN/A
10:00 PM72 °FMild.3 mph66%30.06 "HgN/A
9:00 PM74 °FMild.6 mph60%30.03 "HgN/A
8:00 PM73 °FMild.10 mph66%30.05 "HgN/A
7:00 PM77 °FMild.3 mph65%30.03 "HgN/A
6:00 PM81 °FWarm.3 mph54%30.01 "HgN/A
5:00 PM81 °FWarm.2 mph54%30.01 "HgN/A
4:00 PM79 °FWarm.3 mph55%30.02 "HgN/A
3:00 PM78 °FWarm.2 mph63%30.03 "HgN/A
2:00 PM76 °FPartly sunny.2 mph72%30.05 "Hg7 mi
1:00 PM75 °FMild.2 mph70%30.06 "HgN/A
12:00 PM73 °FMild.2 mph73%30.08 "HgN/A
11:00 AM71 °FPartly sunny.2 mph78%30.09 "Hg6 mi
10:00 AM71 °FMild.No wind78%30.09 "HgN/A
9:00 AM68 °FMild.1 mph87%30.11 "HgN/A
8:00 AM67 °FLow clouds.1 mph91%30.10 "Hg4 mi
7:00 AM66 °FMild.2 mph90%30.10 "HgN/A
6:00 AM66 °FMild.2 mph94%30.09 "HgN/A
5:00 AM66 °FMild.1 mph93%30.09 "HgN/A
4:00 AM66 °FMild.No wind95%30.10 "HgN/A
3:00 AM67 °FMild.2 mph91%30.11 "HgN/A
2:00 AM67 °FMild.No wind93%30.10 "HgN/A
1:00 AM69 °FFog.1 mph90%30.09 "HgN/A
12:00 AM70 °FMild.1 mph80%30.09 "HgN/A
Weather by CustomWeather, © 2016

See weather overviewHow to use our weather pages